RH
14 15 15 12 9 6 5 6 6 4 3 4 6 6 6 5 6 9 13 18 34 38 38 34 32 29 27 37 46 49 50 58 59 61 56 50 55 54 50 50 58 62 67 69
14 19 13 10 8 7 6 7 7 4 3 4 5 5 5 5 5 6 10 16 24 36 38 35 37 34 31 39 48 52 51 60 60 59 55 51 57 55 53 53 68 68 69 73
16 14 12 11 9 8 8 9 8 6 4 3 4 5 5 4 5 5 6 13 22 31 39 39 40 40 36 38 48 51 53 62 61 57 54 52 53 53 53 59 69 72 72 74
13 11 11 12 9 8 11 7 7 5 6 6 5 10 7 6 5 5 6 12 26 28 35 38 42 41 39 38 47 50 54 61 62 56 53 54 58 63 56 67 72 74 74 73
14 14 13 12 10 8 8 7 7 6 7 8 6 8 6 5 5 5 7 8 24 30 32 37 41 40 38 40 48 49 53 59 61 58 53 54 61 62 63 62 68 73 74 72
13 8 10 10 8 8 6 7 7 8 9 13 7 7 7 5 5 5 6 7 14 33 35 35 38 40 39 40 50 50 54 58 61 61 57 58 62 64 65 63 69 71 74 72
22 11 9 9 10 8 8 11 15 14 14 15 8 8 8 5 10 5 6 9 15 17 51 70 41 41 42 41 54 55 57 60 62 65 64 64 64 61 63 67 73 72 74 73
38 27 12 9 10 11 10 11 18 21 18 14 7 9 7 10 15 22 27 28 12 16 24 65 54 44 46 46 58 63 62 61 65 69 67 72 69 61 66 67 70 72 71 72
60 39 26 13 8 9 12 12 10 16 14 15 7 6 16 16 21 29 34 36 40 41 55 73 72 59 52 53 60 68 66 67 70 73 79 80 74 64 69 69 67 70 72 73
55 72 32 33 16 8 10 8 15 16 22 21 11 10 18 23 24 28 32 35 36 37 42 52 75 86 84 63 66 74 75 82 82 79 80 79 75 76 80 73 72 74 79 78
64 62 53 39 41 39 18 12 12 14 16 22 20 12 15 24 26 29 30 32 35 40 49 57 66 84 92 89 81 86 76 87 96 94 98 97 96 93 92 88 90 85 85 86
73 82 80 52 41 34 32 24 24 20 19 17 18 43 21 25 26 31 31 32 32 35 43 57 61 74 86 96 100 100 100 100 100 100 100 100 100 99 98 96 92 88 86 90
56 76 71 42 41 49 59 46 39 30 24 27 24 46 24 26 29 30 33 33 34 34 37 44 47 52 72 88 96 100 99 100 98 100 99 99 99 100 99 96 93 93 95 91
38 55 88 90 92 90 83 66 49 32 38 32 22 39 32 29 31 31 32 33 34 37 38 40 43 44 44 55 82 92 94 98 100 100 100 100 100 100 100 100 100 100 99 94
32 43 36 39 58 65 75 81 59 45 31 34 30 36 32 30 30 30 30 32 34 36 37 38 40 42 42 42 42 70 87 96 100 100 100 100 100 100 100 100 100 100 100 95
33 40 36 38 26 36 70 56 51 45 34 26 25 78 63 26 26 28 28 29 32 34 34 35 35 35 40 44 44 44 55 80 96 99 100 100 100 100 100 100 100 99 100 96
34 39 37 41 27 30 43 42 43 43 34 28 47 87 59 33 26 25 25 24 26 27 27 29 31 34 37 43 47 48 47 74 80 92 95 98 99 100 100 100 100 100 100 97
31 35 37 42 30 53 29 29 37 52 48 38 31 59 63 47 29 25 25 26 27 26 25 25 27 28 32 38 44 50 52 54 77 78 84 94 98 100 100 100 100 100 100 100
22 30 43 56 42 28 22 23 31 44 54 62 46 46 40 34 27 28 25 26 28 29 28 25 24 25 26 31 38 42 46 50 57 65 74 79 87 96 99 100 100 100 100 100
18 25 37 47 55 54 30 30 27 30 34 40 55 66 64 48 37 35 25 24 25 24 24 25 24 23 22 24 28 38 39 42 45 48 58 76 79 95 99 99 100 99 100 100
31 33 44 42 50 32 19 23 25 40 69 76 66 70 76 82 64 41 28 26 24 24 22 21 20 24 23 21 21 24 30 35 40 44 45 55 73 79 91 99 99 99 100 100
44 52 50 46 57 58 24 26 40 53 45 38 76 79 88 73 44 43 32 26 24 23 22 20 19 20 22 22 20 20 22 23 28 39 45 50 60 72 87 94 100 100 100 100
39 36 55 56 64 39 38 36 35 39 37 33 35 32 34 32 28 27 26 23 21 20 18 17 17 18 20 20 20 20 20 22 23 26 38 50 63 68 78 88 97 100 100 100
25 25 45 33 28 25 24 23 23 24 34 28 26 25 24 26 24 24 23 22 19 17 18 16 15 15 16 17 18 19 19 19 20 25 26 31 53 65 74 82 87 92 99 100
42 42 45 47 42 34 28 32 34 34 33 31 31 26 25 26 22 19 17 18 19 17 17 16 17 17 17 17 17 17 17 18 19 20 26 28 35 62 71 80 84 85 87 87
34 39 47 63 36 34 33 26 24 26 28 23 26 33 22 19 22 18 17 17 17 20 19 18 18 18 19 18 18 18 18 18 18 21 22 26 33 37 52 70 79 91 91 90
Wind_Speed
27 19 24 30 27 24 24 24 26 22 23 24 23 22 22 21 20 22 21 21 22 20 20 23 29 25 29 35 37 36 28 30 29 24 22 19 23 19 19 18 22 22 15 14
22 27 30 27 28 29 27 28 26 23 23 21 23 23 22 22 23 21 22 22 21 23 22 20 25 25 26 32 38 36 33 32 31 25 23 21 24 20 19 17 21 20 16 15
28 35 28 28 28 29 27 27 25 25 20 22 16 18 21 21 21 23 20 21 24 23 26 23 21 24 27 29 36 38 35 33 32 24 26 23 22 21 21 20 21 18 15 14
30 30 29 29 31 29 25 27 27 25 20 13 13 13 18 20 21 22 23 17 24 22 25 26 25 26 27 30 36 38 38 37 37 32 28 25 21 20 22 20 19 17 17 16
26 29 27 28 31 28 29 24 25 24 19 19 19 14 17 22 22 23 22 18 19 24 23 29 29 35 34 30 38 39 38 38 36 33 27 24 23 22 23 21 21 19 19 17
27 26 27 30 23 26 25 26 20 21 15 14 19 16 17 16 21 21 19 23 20 27 28 22 31 42 37 31 34 36 37 36 36 35 28 25 22 23 23 26 26 22 20 17
23 25 26 28 27 20 26 19 12 14 14 17 20 19 16 10 10 22 23 21 16 14 21 14 22 23 32 38 35 35 34 34 38 35 30 28 31 25 27 30 29 27 23 19
12 10 23 21 30 20 23 19 11 24 16 18 21 20 20 9 8 13 13 10 24 21 13 28 31 27 32 35 34 33 31 33 33 33 32 26 32 33 20 28 27 27 27 22
12 7 22 14 18 19 23 19 24 19 17 14 16 17 9 11 13 13 11 13 12 11 10 12 8 11 29 35 33 35 35 29 34 33 31 29 33 35 24 25 27 26 26 26
10 10 12 16 11 19 20 17 19 16 21 19 19 22 12 14 13 13 11 11 11 10 8 11 13 13 4 28 30 31 36 31 35 33 35 41 38 32 26 31 33 35 31 25
12 5 13 13 11 17 11 19 17 17 15 14 14 14 15 24 21 16 13 11 10 10 11 11 13 20 23 16 17 27 31 31 25 30 29 27 26 27 25 30 32 35 32 26
8 5 7 11 22 21 21 15 16 13 22 14 16 5 12 17 17 16 16 13 11 10 9 10 11 17 17 22 16 11 14 15 20 27 29 26 27 28 31 28 26 26 24 24
10 7 8 10 12 14 10 25 26 21 7 16 13 6 11 17 17 15 14 13 13 11 10 10 11 12 14 15 17 17 16 17 16 17 18 19 25 27 29 29 28 26 26 28
3 4 4 6 8 9 14 23 23 18 8 12 15 18 18 17 17 16 15 13 13 13 12 11 10 10 13 12 14 16 15 12 13 15 16 19 17 18 21 24 24 24 25 27
12 12 12 10 10 13 18 18 18 18 18 9 13 12 19 18 17 16 16 15 14 14 14 12 11 9 11 11 11 15 14 11 10 12 13 14 15 15 16 19 22 23 24 28
15 10 16 18 14 8 15 18 17 17 16 16 14 9 16 15 17 15 14 14 14 13 14 13 12 12 12 14 13 9 12 12 12 10 9 8 9 11 13 14 18 21 27 27
15 12 11 13 8 11 11 8 10 12 15 14 10 4 5 11 12 12 13 13 13 13 13 13 12 11 14 15 15 14 11 15 15 13 9 7 5 7 11 15 18 23 24 24
15 14 11 11 11 9 5 4 1 8 12 12 10 7 11 4 10 13 12 11 12 12 12 11 10 13 13 14 16 17 14 13 17 14 9 8 6 6 11 13 17 24 24 26
15 11 9 10 12 14 15 3 2 1 7 11 12 13 8 13 11 10 11 12 11 10 8 10 12 13 13 14 14 16 17 16 13 12 9 10 8 7 9 13 17 20 23 24
6 7 7 11 13 11 4 5 2 1 9 9 9 8 11 14 7 9 8 9 8 10 9 8 9 11 12 12 11 13 15 14 13 10 7 10 9 10 10 13 16 19 21 23
11 10 11 11 11 15 17 6 4 5 2 5 2 6 5 6 3 7 7 5 5 4 7 5 7 9 9 9 9 11 12 12 11 10 8 6 10 10 9 9 12 14 18 20
13 10 10 12 14 15 12 1 6 3 4 5 8 5 6 2 3 2 5 1 2 2 1 2 3 6 6 5 7 8 9 9 9 10 11 10 5 11 11 7 7 11 16 17
13 13 10 8 8 22 11 12 6 1 4 1 6 7 5 3 1 2 4 8 7 4 6 6 5 3 3 4 5 5 4 5 7 8 9 9 14 7 12 10 7 9 13 17
17 21 17 17 21 22 20 12 10 6 9 9 9 8 6 4 4 6 7 8 8 9 6 8 8 8 7 5 4 5 6 3 3 5 7 7 7 9 6 8 6 8 10 14
12 17 19 21 19 20 19 17 17 18 19 14 15 10 10 8 9 7 8 10 12 13 11 9 9 10 10 11 10 9 6 7 5 4 3 6 5 5 6 3 8 10 10 13
13 16 11 13 19 17 16 19 21 19 20 19 17 16 16 14 10 10 8 13 15 14 15 14 13 12 13 13 13 13 13 9 9 6 8 6 2 3 3 4 1 4 10 13
Wind_Direction
218 220 219 217 222 228 236 230 227 242 234 227 209 226 223 235 245 210 196 179 175 181 182 187 184 191 177 158 159 164 177 174 179 175 188 191 172 197 172 175 175 168 173 176
220 221 219 220 222 228 231 246 247 229 235 225 208 214 227 222 235 244 203 183 176 171 174 185 180 187 181 163 161 164 176 176 180 180 190 190 177 195 166 167 155 161 177 176
219 224 218 229 227 226 228 233 246 254 220 243 212 225 215 230 235 234 235 189 174 173 171 177 177 192 182 173 166 166 175 174 180 186 193 195 181 186 170 173 160 165 182 181
235 228 222 223 233 228 231 225 240 252 251 207 189 236 233 238 226 226 236 198 169 179 174 171 175 187 190 181 168 169 176 179 184 191 193 194 182 168 179 167 162 173 180 184
235 236 228 228 224 230 232 234 228 244 248 257 195 212 236 219 220 219 217 217 177 173 182 173 174 179 186 181 175 175 180 180 185 193 191 197 182 176 178 183 167 177 182 185
241 233 238 237 233 226 236 236 233 228 244 250 233 228 222 240 209 218 214 216 192 171 188 191 173 171 175 181 175 180 178 183 185 191 190 190 191 180 181 177 171 175 180 183
251 239 238 235 240 227 234 226 220 220 215 233 230 235 247 213 334 197 208 196 179 207 166 205 182 171 168 180 177 181 181 183 187 186 195 186 192 194 195 176 170 169 174 183
335 261 237 238 230 216 234 216 220 217 209 226 231 223 227 139 75 45 80 52 181 197 193 169 198 176 174 174 173 176 181 187 182 180 189 192 189 201 211 179 175 174 173 177
350 288 338 304 215 232 228 218 234 249 231 229 218 218 67 120 126 105 85 79 66 49 20 28 51 241 167 172 175 175 184 185 176 179 178 183 193 202 211 195 179 174 169 169
346 293 322 328 272 227 244 238 226 230 237 240 229 221 164 165 146 124 113 93 81 71 50 31 29 46 224 167 173 177 179 176 182 183 190 194 196 203 200 193 184 176 175 180
355 298 304 329 24 347 266 245 240 240 241 251 260 235 181 163 154 144 120 100 83 76 76 59 50 41 27 155 214 212 201 184 185 195 194 195 190 192 191 188 178 176 175 183
3 308 291 281 304 330 319 336 327 225 229 244 253 17 77 119 120 117 117 112 96 79 66 88 65 64 50 51 80 130 169 158 171 178 183 177 169 179 183 193 183 181 184 187
354 2 320 299 298 11 4 344 339 340 322 270 252 144 91 108 115 117 117 116 112 101 84 75 72 70 69 66 67 74 76 134 181 188 189 182 194 192 189 191 189 192 189 184
248 347 327 309 318 319 312 325 327 327 314 285 261 131 144 141 135 132 124 119 111 102 89 79 70 69 69 91 104 91 87 102 135 164 184 183 183 187 186 192 194 191 187 185
355 314 303 296 275 293 300 303 312 313 316 306 333 187 156 149 139 131 124 119 112 103 95 83 70 62 55 69 82 113 107 110 123 141 156 161 182 191 198 197 193 185 192 191
313 300 309 297 292 289 284 287 283 289 292 293 317 62 324 138 119 127 128 118 108 101 95 85 72 62 50 40 51 81 110 112 108 107 123 152 174 188 197 198 185 185 188 184
283 287 290 298 325 307 290 277 275 272 279 326 18 123 101 123 122 119 117 113 106 99 92 86 72 53 48 40 46 57 83 123 113 106 102 101 127 181 202 194 193 184 186 180
263 259 276 282 292 280 277 184 278 306 315 333 337 138 146 61 89 106 102 100 94 93 84 76 73 63 36 47 54 53 78 79 121 116 111 109 113 173 190 195 188 188 186 185
231 241 261 265 261 275 302 344 339 321 310 315 317 338 18 148 106 75 77 83 86 82 66 67 72 72 52 33 58 67 66 68 68 92 115 129 144 145 177 193 197 200 192 190
257 215 248 267 277 272 230 123 102 152 276 229 245 295 321 337 189 123 116 104 93 85 63 68 65 69 61 40 43 70 62 60 55 49 94 139 141 149 155 186 196 201 198 195
269 260 249 241 250 261 283 170 141 268 23 42 259 205 248 288 1 356 67 80 53 23 72 32 65 75 56 43 34 63 55 46 34 31 35 98 146 139 146 160 183 195 198 192
304 304 275 262 265 270 316 38 301 95 144 117 120 138 102 152 167 154 316 280 264 301 53 38 13 64 46 36 43 45 50 36 26 20 32 18 124 141 138 125 163 191 198 196
294 297 300 294 299 308 326 324 150 97 326 159 127 127 132 196 264 320 291 298 318 310 320 326 314 32 13 352 5 15 47 28 21 19 18 23 33 125 150 144 146 178 200 206
286 298 292 294 294 292 291 277 269 249 207 220 194 200 194 228 250 271 275 277 287 288 284 312 328 318 310 307 308 308 319 334 0 2 358 0 34 43 128 155 166 172 194 213
289 289 286 293 293 296 300 332 331 325 330 345 313 276 239 278 269 271 291 287 281 280 281 282 291 297 298 299 297 298 284 287 301 298 302 332 344 47 16 73 206 210 222 219
273 274 275 275 296 296 300 310 307 305 302 303 305 295 285 257 236 266 266 288 282 272 277 269 266 274 284 290 291 290 292 289 291 295 299 284 320 277 251 263 243 235 233 238